Regional Weather Roundup
Issued by NWS Cleveland, OH

Home | Current Version | Previous Version | Text Only | Print | Product List | Glossary Off
Versions: 1 2 3 4 5 6 7 8 9 10 11 12 13 14 15 16 17 18 19 20 21 22 23 24 25 26 27 28 29 30 31 32 33 34 35 36 37 38 39 40 41 42 43 44 45 46 47 48 49 50

000
ASUS41 KCLE 101702
RWRCLE
OHIO REGIONAL WEATHER ROUNDUP
NATIONAL WEATHER SERVICE CLEVELAND, OH
1200 PM EST SAT DEC 10 2016

NOTE: "FAIR" INDICATES FEW OR NO CLOUDS BELOW 12,000 FEET WITH NO
SIGNIFICANT WEATHER AND/OR OBSTRUCTIONS TO VISIBILITY.

OHZ001>008-015>018-024>027-034-035-043-044-101800-
   NORTHWEST OHIO

CITY           SKY/WX    TMP DP  RH WIND       PRES   REMARKS
DEFIANCE       MOSUNNY   27  13  55 W10       30.50F WCI  17
FINDLAY        MOSUNNY   27  14  58 SW16      30.49F WCI  15
TOLEDO EXPRESS SUNNY     27  15  61 SW15      30.47F WCI  15
TOLEDO EXEC    MOSUNNY   28  16  60 SW13      30.49F WCI  17
LIMA           CLOUDY    24  16  71 W15       30.49F WCI  11
$$

OHZ009>014-019>023-028>033-038-089-101800-
   NORTHEAST OHIO

CITY           SKY/WX    TMP DP  RH WIND       PRES   REMARKS
CLE-HOPKINS    PTSUNNY   29  15  56 W14       30.49F WCI  18
CLE-LAKEFRONT  MOSUNNY   27  17  66 SW13      30.46F WCI  16
CUY CO. ARPT   PTSUNNY   28  18  64 W12G21    30.44F WCI  18
LORAIN-ELYRIA  MOSUNNY   26  17  68 W13       30.47F WCI  15
ASHTABULA      LGT SNOW  23  20  88 W15       30.42F FOG     WCI  10
AKRON-CANTON   PTSUNNY   25  14  63 W14       30.45F WCI  13
WOOSTER        PTSUNNY   24  15  68 W10       30.47F WCI  14
MANSFIELD      PTSUNNY   23  14  68 SW9       30.46F WCI  13
YOUNGSTOWN     PTSUNNY   27  15  61 W15G24    30.42F WCI  15
$$

OHZ042-051>053-060>062-070>072-077>081-101800-
  SOUTHWEST OHIO

CITY           SKY/WX    TMP DP  RH WIND       PRES   REMARKS
CINC-COVINGTON PTSUNNY   26  16  65 W5        30.54F WCI  20
CINC-LUNKEN    PTSUNNY   28  17  63 W6        30.59F WCI  22
HAMILTON       CLOUDY    27  17  66 W9        30.57F WCI  18
DAYTON         CLOUDY    25  15  66 W8        30.52F WCI  16
WRIGHT-PAT AFB NOT AVBL
DAYTON GENERAL CLOUDY    25  16  68 SW8       30.51F WCI  16
WILMINGTON     CLOUDY    26  15  63 W9        30.51F WCI  17
$$

OHZ036-037-039>041-045>050-054>059-063>069-073>076-082>088-101800-
  CENTRAL AND SOUTHEAST OHIO

CITY           SKY/WX    TMP DP  RH WIND       PRES   REMARKS
COLUMBUS       CLOUDY    25  18  74 W7        30.52F WCI  17
OSU AIRPORT    CLOUDY    25  17  72 W8        30.52F WCI  16
BOLTON FIELD   CLOUDY    25  18  74 W6        30.53F WCI  18
RICKENBACK AFB   N/A     26  16  65 W9        30.53F WCI  17
NEWARK         LGT SNOW  24  18  77 W6        30.51F WCI  17
MARION         MOSUNNY   25  15  66 W16       30.50F WCI  12
LANCASTER      CLOUDY    26  17  68 SW8       30.53F WCI  18
ZANESVILLE     CLOUDY    26  16  65 W9        30.50F WCI  17
NEW PHILLY     CLOUDY    26  16  65 W10       30.50F WCI  16
$$




USA.gov is the U.S. government's official web portal to all federal, state and local government web resources and services.